TIME,DELAY(SENSOR),PRES,OXYGEN,RAWTEMP,T(OPTODE),TCPHASE,FLUOR,BETA(BETA700),BETA(BETA412),BETA(BETA440),CDOM,C(CSC),ED(ED412.20),ED(ED444.00),ED(ED489.60),ED(ED554.30),LU(LU412.10),LU(LU443.90),LU(LU489.70),LU(LU554.70),COMP,TILTX,TILTY,CHECK
1346297158,5810,911.0499877929688000,32.7268791198730500,557.4962768554688000,4.5634651184082030,56.6250915527343750,56,101,100,78,82,15566,0,0,0,0,2147123739,2147775908,2147572397,2147574262,3130,3,13,11851
1346300754,5808,981.2700195312500000,39.0188293457031250,562.5964965820312000,4.4053969383239750,55.6882286071777340,55,102,100,77,83,15564,0,0,0,0,2147123145,2147780507,2147571986,2147572681,3514,3,13,54485
1346304354,5808,993.3499755859375000,39.1452713012695300,563.3823242187500000,4.3810229301452640,55.6706314086914060,55,100,101,78,82,15565,0,0,0,0,2147122806,2147780672,2147570916,2147571913,116,3,13,4618
1346307954,5805,1002.0300292968750000,37.7425994873046900,564.8887939453125000,4.3342838287353520,55.9052505493164060,55,100,101,77,82,15563,0,0,0,0,2147123245,2147779520,2147568566,2147574976,210,3,13,62874
1346311554,5810,1004.7700195312500000,37.3334007263183600,565.0440063476562000,4.3294677734375000,55.9644889831543000,54,99,101,78,83,15565,0,0,0,0,2147119817,2147779648,2147572196,2147573814,151,3,13,14774
1346315154,5808,1010.5000000000000000,36.7030906677246100,565.0645751953125000,4.3288288116455080,56.0691604614257800,55,98,101,77,83,15560,0,0,0,0,2147122779,2147775168,2147574848,2147570258,119,3,13,24690
1346318754,5809,1011.5399780273438000,36.9435997009277340,565.1381835937500000,4.3265438079833980,56.0308418273925800,55,99,100,77,83,15562,0,0,0,0,2147125065,2147778880,2147575954,2147574610,170,3,13,38638
1346322354,5808,1018.7100219726562000,37.0060501098632800,564.9984741210938000,4.3308792114257810,56.0209388732910160,55,98,100,79,83,15562,0,0,0,0,2147122002,2147774592,2147576557,2147572882,3496,3,13,8129
1346325954,5809,1016.0300292968750000,37.2533416748046900,564.4285888671875000,4.3485617637634280,55.9775886535644500,56,98,100,78,83,15564,0,0,0,0,2147123254,2147778258,2147572416,2147571154,246,3,13,28525
1346329554,5809,1016.6199951171875000,36.8458709716796900,565.3809814453125000,4.3190078735351560,56.0454292297363300,55,100,101,78,83,15563,0,0,0,0,2147124251,2147777618,2147573101,2147571657,205,3,13,58756
1346333154,5808,1017.6900024414062000,37.2054901123046900,564.9475097656250000,4.3324618339538570,55.9886207580566400,55,99,100,78,82,15564,0,0,0,0,2147125165,2147776813,2147571556,2147574976,191,3,13,1353
1346336754,5809,1014.0200195312500000,35.5747604370117200,566.2221069335938000,4.2929000854492190,56.2507705688476560,56,99,101,78,82,15563,0,0,0,0,2147123401,2147778358,2147578230,2147569892,247,3,13,46106
1346340354,5811,1010.8599853515625000,36.2686004638671900,566.6309204101562000,4.2802090644836430,56.1486701965332000,54,102,101,77,83,15555,0,0,0,0,2147125997,2147768978,2147571318,2147571968,232,3,13,23257
1346343954,5807,1015.5700073242188000,36.2017211914062500,566.5407714843750000,4.2830052375793460,56.1584281921386700,54,97,101,78,83,15555,0,0,0,0,2147125101,2147777636,2147573796,2147573705,178,3,13,48685
1346347554,5809,1018.4400024414062000,36.4024009704589840,566.5239868164062000,4.2835268974304200,56.1280097961425800,55,99,99,77,83,15553,0,0,0,0,2147125028,2147771209,2147575689,2147571437,3594,3,13,54790
1346351154,5810,1019.2299804687500000,36.6339492797851560,566.4578247070312000,4.2855849266052250,56.0925102233886700,56,100,101,79,83,15556,0,0,0,0,2147121581,2147774080,2147573869,2147572745,451,3,13,38425
1346354754,5808,1014.7500000000000000,36.3760299682617200,566.4918212890625000,4.2845292091369630,56.1328697204589840,55,99,103,79,83,15558,0,0,0,0,2147122377,2147778413,2147570139,2147569819,401,3,13,50416
1346358354,5808,1016.2999877929688000,36.2343292236328100,566.9503784179688000,4.2702898979187010,56.1545295715332000,55,98,100,78,83,15551,0,0,0,0,2147121883,2147774509,2147577408,2147569344,486,3,13,26081
1346361954,5809,1020.8099975585938000,37.2045898437500000,566.2872924804688000,4.2908759117126465,55.9966697692871100,56,100,101,78,83,15552,0,0,0,0,2147121115,2147776201,2147572534,2147573824,69,3,13,64764
1346365554,5809,1024.0000000000000000,35.9621200561523440,566.3394165039062000,4.2892589569091800,56.1949615478515600,56,98,101,79,84,15551,0,0,0,0,2147123830,2147777206,2147572416,2147574838,3434,3,13,37688
1346369154,5809,1024.2299804687500000,35.9290313720703100,566.1312866210938000,4.2957191467285160,56.1949806213378900,56,98,100,78,83,15550,0,0,0,0,2147119808,2147773851,2147570752,2147573494,425,3,13,46449
1346372754,5808,1018.7700195312500000,35.6905212402343750,566.4827880859375000,4.2848048210144040,56.2368698120117200,56,106,100,77,83,15551,0,0,0,0,2147121453,2147777270,2147573613,2147571830,282,3,13,32983
1346376354,5811,1012.7800292968750000,37.9468612670898440,566.7374877929688000,4.2768969535827640,55.8906898498535160,55,97,105,79,84,15549,0,0,0,0,2147125056,2147772233,2147574345,2147570761,83,3,13,46333
1346379954,5810,1025.4799804687500000,38.2786788940429700,566.6754760742188000,4.2788262367248535,55.8444709777832000,55,98,100,78,82,15549,0,0,0,0,2147120667,2147777270,2147568722,2147571181,25,3,13,22228
1346383554,5809,1025.0100097656250000,36.5447311401367200,566.4224243164062000,4.2866821289062500,56.1037788391113300,55,98,101,78,82,15546,0,0,0,0,2147125760,2147777307,2147572772,2147572891,3487,3,13,2485
1346387154,5813,1021.4600219726562000,36.1068000793457000,566.5410156250000000,4.2830009460449220,56.1701812744140600,55,98,100,78,83,15547,0,0,0,0,2147123017,2147777490,2147570816,2147572800,86,3,13,45729
1346390754,5809,1021.4500122070312000,37.0423316955566400,566.3148193359375000,4.2900218963623050,56.0240898132324200,56,100,101,78,82,15548,0,0,0,0,2147126345,2147773485,2147576512,2147574976,137,3,13,57591
1346394354,5810,1022.6699829101562000,36.1121101379394500,566.1694946289062000,4.2945351600646970,56.1667404174804700,55,99,100,78,83,15548,0,0,0,0,2147124041,2147777554,2147573494,2147572214,56,3,13,55208
1346397954,5811,1021.5200195312500000,36.6024208068847660,566.3645019531250000,4.2884812355041500,56.0993690490722660,56,99,100,79,83,15548,0,0,0,0,2147121865,2147774509,2147571739,2147574034,2906,3,13,30106
1346401554,5811,1022.2000122070312000,36.9094696044921900,566.3333740234375000,4.2894439697265625,56.0494117736816400,56,98,102,77,83,15550,0,0,0,0,2147122806,2147775021,2147576850,2147572662,3094,3,13,61447
1346405154,5811,1024.1800537109375000,35.4182395935058600,565.9506835937500000,4.3013248443603520,56.2731018066406250,55,99,100,79,83,15551,0,0,0,0,2147126500,2147776996,2147573028,2147571053,15,3,13,60084
1346408754,5809,1028.8000488281250000,36.9558982849121100,566.0083007812500000,4.2995381355285645,56.0325813293457000,55,98,103,76,84,15543,0,0,0,0,2147122358,2147776493,2147573714,2147572672,3366,3,13,52013
1346412354,5807,1023.6500244140625000,36.8450012207031250,566.7655029296875000,4.2760300636291500,56.0579490661621100,56,99,101,78,83,15546,0,0,0,0,2147122843,2147771538,2147575268,2147568868,535,3,13,39416
1346415954,5809,1025.5500488281250000,37.1659393310546900,566.9620971679688000,4.2699260711669920,56.0144386291503900,55,99,100,79,84,15546,0,0,0,0,2147123355,2147776301,2147574464,2147573906,219,3,13,57900
1346419554,5811,1023.4000244140625000,36.8374900817871100,566.8754272460938000,4.2726168632507320,56.0616798400878900,55,97,102,78,82,15547,0,0,0,0,2147123273,2147774162,2147571072,2147576329,94,3,13,23528
1346423154,5810,1030.3399658203125000,36.5917892456054700,566.3264770507812000,4.2896580696105960,56.0979194641113300,55,109,101,78,82,15545,0,0,0,0,2147122651,2147776914,2147577746,2147571072,3228,3,13,61057
1346426754,5812,1029.5799560546875000,36.4431800842285160,566.3767089843750000,4.2881011962890625,56.1180686950683600,54,98,100,78,83,15544,0,0,0,0,2147123840,2147774272,2147566756,2147569691,3427,3,13,46802
1346430354,5808,1029.5100097656250000,35.6654090881347660,566.0501708984375000,4.2982368469238280,56.2357597351074200,55,98,101,77,83,15542,0,0,0,0,2147120978,2147771209,2147576201,2147570477,270,3,13,11568
1346433954,5808,1029.5200195312500000,36.3025703430175800,566.8571166992188000,4.2731881141662600,56.1421203613281250,54,98,99,78,83,15543,0,0,0,0,2147121728,2147773376,2147571227,2147570203,30,3,13,33745
1346437554,5809,1028.2299804687500000,36.3016090393066400,566.6129150390625000,4.2807688713073730,56.1438217163085940,53,98,100,77,83,15543,0,0,0,0,2147123062,2147772873,2147573604,2147572891,440,3,13,11260
1346441157,5807,1029.4000244140625000,36.2523384094238300,566.5831298828125000,4.2816939353942870,56.1538810729980500,54,96,101,78,84,15541,0,0,0,0,2147120109,2147777426,2147570989,2147573275,249,3,13,1300
